Location: Central Falls
(41.8900°N, 71.3929°W)
Time: 07:37:50
(UTC+00:00)

Altair - Pass Details

Date: 06 December 2023
Orbit: 1501 x 1682 km, 47.2° (Epoch: 29 February)

Event Time Altitude Azimuth Distance (km) Brightness Sun altitude
Rises 12:33:23 0° 232° (SW) 4,854 10.0 4.6°
Reaches altitude 10° 12:36:33 10° 230° (SW) 3,847 9.5 5.1°
Maximum altitude 12:46:17 75° 148° (SSE) 1,630 8.1 6.5°
Drops below altitude 10° 12:55:40 10° 65° (ENE) 3,716 9.9 7.9°
Sets 12:58:40 0° 64° (ENE) 4,681 10.4 8.3°
